Вернуться в каталог

FENGYUN 1C DEB

АктивенSSO
NORAD 30411·DEBRIS·🇨🇳 China

Запущен May 10, 1999 с Taiyuan Satellite Launch Center

Loading…

Ближайшие Пролёты (ближайшие 24 часа)

TLE

СвежийSource: Space-Track

Эпоха: Sep 14, 2026, 04:20 UTC

1 30411U 99025AEA 26257.18121086  .00001861  00000-0  10181-2 0  9992
2 30411  98.5692 159.4697 0124212  45.2542 315.8658 14.09231257998618

Отслеживайте FENGYUN 1C DEB в реальном времени с AllMySat

Download on the App Store